STARLINK-30109 (56298 NORAD) Tracking and Keplerian Element Data

This shows tracking and keplerian element data for the satellite.

Feedback or suggestion? Click here.




ElementValue
Catalog56298
NameSTARLINK-30109
Epoch Orbit325
Epoch Day127.25001157
Epoch Year2023
RAAN97.2657
Inclination43.0023
Eccentricity0.0001219
Argument of Perigee262.3298
Mean Anonmoly329.7766
Mean Motion15.51856175
Decay Rate-0.0063549
L11 56298U 23056N 23127.25001157 -.00635490 00000+0 -11207-1 0 9992
L22 56298 43.0023 97.2657 0001219 262.3298 329.7766 15.51856175 3259



Live tracking and technical data element details for STARLINK-30109 (NORAD 56298). STARLINK-30109 can be tracked NOW for your location showing map with azimuth and elevation plus other details from your city location.







IsCatalogInMostPopularTable: catalog: 56298, numindb: 5
Update: records affected: 1



GetName: 56298 STARLINK-30109

Hit Count: updated at: Wed, 07 Jun 2023 09:33:04 GMT